Location: Dumpton Point
(51.3500°N, 1.4433°E)
Time: 04:10:27
(UTC+00:00)

Altair - Pass Details

Date: 05 October 2022
Orbit: 1501 x 1682 km, 47.2° (Epoch: 04 December)

Event Time Altitude Azimuth Distance (km) Brightness Sun altitude
Rises 07:47:59 0° 270° (W) 4,836 9.6 15.0°
Reaches altitude 10° 07:51:05 10° 268° (W) 3,871 9.2 15.4°
Maximum altitude 08:00:56 69° 189° (S) 1,764 8.3 16.7°
Drops below altitude 10° 08:10:59 10° 109° (ESE) 3,945 11.5 18.1°
Sets 08:14:11 0° 107° (ESE) 4,931 11.6 18.5°
